Home   Weather   Miami   Past weeks
Flag for USA

Past Weather in Miami, Florida, USA — Yesterday and Last 2 Weeks

Now
88 °F

Broken clouds.


Feels Like: 96 °F
Forecast: 89 / 81 °F
Wind: 9 mph from Southeast

Location: Miami International Airport

Current Time: Jul 19, 2019 at 10:48:32 am

Latest Report: Jul 19, 2019 at 9:53 am


Visibility: 10 mi

Pressure: 30.09 "Hg

Humidity: 61%

Dew Point: 73 °F

Location of MiamiLocation

Past Weather in Miami — Graph

°F

Miami Temperature Yesterday

Maximum temperature yesterday: 91 °F (at 10:53 am)
Minimum temperature yesterday: 84 °F (at 1:53 am)
Average temperature yesterday: 87 °F

High & Low Weather Summary for the Past Weeks

 TemperatureHumidityPressure
High93 °F (Jul 14, 1:53 pm)91% (Jul 8, 3:53 pm)30.14 "Hg (Jul 8, 3:53 pm)
Low73 °F (Jul 8, 1:39 pm)48% (Jul 9, 1:53 pm)29.92 "Hg (Jul 8, 4:53 am)
Average85 °F68%30.05 "Hg
* Reported Jul 4 8:53 am — Jul 19 8:53 am, Miami. Weather by CustomWeather, © 2019

Note: Actual official high and low records may vary slightly from our data, if they occured in-between our weather recording intervals... More about our weather records

Advertising

Miami Weather History for the Previous 24 Hours

Scroll right to see more
 ConditionsComfort  
Time TempWeatherWind HumidityBarometerVisibility
8:53 am
Fri, Jul 19
86 °FPartly sunny.8 mph67%30.08 "Hg10 mi
7:53 am83 °FBroken clouds.7 mph77%30.06 "Hg10 mi
6:53 am82 °FBroken clouds.3 mph77%30.05 "Hg10 mi
5:53 am82 °FLight rain. Partly cloudy.5 mph74%30.05 "Hg10 mi
4:53 am81 °FPassing clouds.No wind79%30.04 "Hg10 mi
3:53 am81 °FPassing clouds.No wind79%30.05 "Hg10 mi
2:53 am81 °FPassing clouds.6 mph72%30.06 "Hg10 mi
1:53 am80 °FPartly cloudy.No wind79%30.08 "Hg10 mi
1:22 am84 °FLight rain. Passing clouds.9 mph72%30.09 "Hg8 mi
12:53 am84 °FPassing clouds.5 mph72%30.09 "Hg10 mi
11:53 pm
Thu, Jul 18
84 °FPassing clouds.8 mph72%30.09 "Hg10 mi
10:53 pm84 °FPassing clouds.5 mph70%30.08 "Hg10 mi
9:53 pm85 °FPassing clouds.8 mph70%30.07 "Hg10 mi
8:53 pm86 °FPartly cloudy.10 mph63%30.07 "Hg10 mi
7:53 pm86 °FPartly sunny.8 mph63%30.05 "Hg10 mi
6:53 pm87 °FSunny.8 mph59%30.04 "Hg10 mi
5:53 pm89 °FMore clouds than sun.8 mph57%30.04 "Hg10 mi
4:53 pm89 °FBroken clouds.3 mph53%30.06 "Hg10 mi
3:53 pm89 °FBroken clouds.7 mph55%30.09 "Hg10 mi
2:53 pm88 °FBroken clouds.7 mph61%30.09 "Hg10 mi
1:53 pm89 °FBroken clouds.10 mph57%30.09 "Hg10 mi
12:53 pm91 °FBroken clouds.9 mph50%30.11 "Hg10 mi
11:53 am90 °FBroken clouds.13 mph57%30.10 "Hg10 mi
10:53 am91 °FBroken clouds.10 mph54%30.09 "Hg10 mi
Weather by CustomWeather, © 2019

See weather overview